カタログに戻る

STARLINK-38138

運用中通信SSO
NORAD 100384·PAYLOAD·🇺🇸 United States

打ち上げ Aug 19, 2026 から Vandenberg Space Force Base

Loading…

次のパス (今後24時間)

TLE

最新Source: Space-Track

元期: Sep 14, 2026, 20:22 UTC

1 A0384U 26190P   26257.84871361  .00726617  00000-0  41591-2 0  9994
2 A0384  97.2848 111.8883 0001238 105.7372 254.4031 15.76854466  5459

AllMySatでSTARLINK-38138をリアルタイム追跡

Download on the App Store